When you browse on this site, cookies collect data to enhance your experience and personalize the content and advertising you see.
Visit our Privacy Policy to learn more. By continuing to use the site, you agree to this use of cookies and data.
  • In United Kingdom
  • List of Countries
  • For 7 days
  • Water Temperature
  • Satellite Maps
  • Weather Map
  • Weather Widgets
  • user-avatar
    Login

    Hourly Weather Maseru

    Today, 26 April, Friday

    Time Temperature Precipitation Wind Pressure Humidity
    00:00 +10°C° 0 mm 0 mps 635 mmHg 64%
    01:00 +9°C° 0 mm 0 mps 635 mmHg 65%
    02:00 +9°C° 0 mm 0 mps 634 mmHg 65%
    03:00 +9°C° 0 mm 0 mps 634 mmHg 67%
    04:00 +8°C° 0 mm 0 mps 634 mmHg 68%
    05:00 +8°C° 0 mm 0 mps 634 mmHg 69%
    06:00 +11°C° 0 mm 1 mps 635 mmHg 64%
    07:00 +13°C° 0 mm 1 mps 636 mmHg 58%
    08:00 +14°C° 0 mm 1 mps 637 mmHg 53%
    09:00 +16°C° 0 mm 2 mps 637 mmHg 48%
    10:00 +18°C° 0 mm 3 mps 637 mmHg 43%
    11:00 +20°C° 0 mm 4 mps 638 mmHg 38%
    12:00 +20°C° 0 mm 4 mps 638 mmHg 36%
    13:00 +21°C° 0 mm 4 mps 637 mmHg 34%
    14:00 +22°C° 0 mm 4 mps 637 mmHg 32%
    15:00 +21°C° 0 mm 3 mps 637 mmHg 35%
    16:00 +21°C° 0 mm 3 mps 637 mmHg 38%
    17:00 +20°C° 0 mm 3 mps 636 mmHg 41%
    18:00 +18°C° 0 mm 2 mps 636 mmHg 44%
    19:00 +16°C° 0 mm 2 mps 636 mmHg 47%
    20:00 +14°C° 0 mm 1 mps 635 mmHg 50%
    21:00 +13°C° 0 mm 1 mps 635 mmHg 52%
    22:00 +12°C° 0 mm 1 mps 635 mmHg 54%
    23:00 +11°C° 0 mm 0 mps 635 mmHg 56%

    Tomorrow, 27 April, Saturday

    Time Temperature Precipitation Wind Pressure Humidity
    00:00 +10°C° 0 mm 0 mps 635 mmHg 58%
    01:00 +10°C° 0 mm 0 mps 635 mmHg 60%
    02:00 +10°C° 0 mm 0 mps 635 mmHg 62%
    03:00 +9°C° 0 mm 0 mps 635 mmHg 65%
    04:00 +9°C° 0 mm 0 mps 634 mmHg 68%
    05:00 +9°C° 0 mm 0 mps 634 mmHg 71%
    06:00 +11°C° 0 mm 0 mps 635 mmHg 65%
    07:00 +13°C° 0 mm 0 mps 637 mmHg 59%
    08:00 +15°C° 0 mm 0 mps 638 mmHg 52%
    09:00 +17°C° 0 mm 0 mps 638 mmHg 45%
    10:00 +18°C° 0 mm 0 mps 639 mmHg 37%
    11:00 +20°C° 0 mm 0 mps 639 mmHg 30%
    12:00 +23°C° 0 mm 1 mps 639 mmHg 28%
    13:00 +24°C° 0 mm 1 mps 639 mmHg 25%
    14:00 +25°C° 0 mm 1 mps 639 mmHg 23%
    15:00 +24°C° 0 mm 1 mps 638 mmHg 30%
    16:00 +23°C° 0 mm 1 mps 638 mmHg 36%
    17:00 +22°C° 0 mm 1 mps 638 mmHg 42%
    18:00 +18°C° 0 mm 0 mps 637 mmHg 42%
    19:00 +16°C° 0 mm 0 mps 637 mmHg 42%
    20:00 +13°C° 0 mm 0 mps 637 mmHg 42%
    21:00 +13°C° 0 mm 0 mps 637 mmHg 43%
    22:00 +13°C° 0 mm 0 mps 637 mmHg 44%
    23:00 +12°C° 0 mm 0 mps 637 mmHg 45%

    Day after tomorrow, 28 April, Sunday

    Time Temperature Precipitation Wind Pressure Humidity
    00:00 +12°C° 0 mm 0 mps 637 mmHg 46%
    01:00 +11°C° 0 mm 0 mps 637 mmHg 47%
    02:00 +12°C° 0 mm 1 mps 637 mmHg 48%
    03:00 +11°C° 0 mm 1 mps 637 mmHg 51%
    04:00 +11°C° 0 mm 1 mps 636 mmHg 53%
    05:00 +11°C° 0 mm 1 mps 636 mmHg 55%
    06:00 +13°C° 0 mm 1 mps 638 mmHg 53%
    07:00 +15°C° 0 mm 1 mps 639 mmHg 50%
    08:00 +18°C° 0 mm 1 mps 640 mmHg 48%
    09:00 +20°C° 0 mm 1 mps 641 mmHg 41%
    10:00 +20°C° 0 mm 0 mps 641 mmHg 34%
    11:00 +22°C° 0 mm 0 mps 642 mmHg 26%
    12:00 +24°C° 0 mm 1 mps 641 mmHg 25%
    13:00 +25°C° 0 mm 1 mps 641 mmHg 23%
    14:00 +26°C° 0 mm 1 mps 641 mmHg 22%
    15:00 +25°C° 0 mm 1 mps 640 mmHg 29%
    16:00 +22°C° 0 mm 0 mps 640 mmHg 36%
    17:00 +21°C° 0 mm 0 mps 640 mmHg 43%
    18:00 +18°C° 0 mm 0 mps 639 mmHg 42%
    19:00 +16°C° 0 mm 0 mps 639 mmHg 41%
    20:00 +14°C° 0 mm 0 mps 639 mmHg 40%
    21:00 +15°C° 0 mm 1 mps 639 mmHg 41%
    22:00 +14°C° 0 mm 1 mps 639 mmHg 42%
    23:00 +14°C° 0 mm 1 mps 639 mmHg 43%

    29 April, Monday

    Time Temperature Precipitation Wind Pressure Humidity
    00:00 +13°C° 0 mm 1 mps 639 mmHg 43%
    01:00 +13°C° 0 mm 1 mps 639 mmHg 44%
    02:00 +13°C° 0 mm 1 mps 639 mmHg 45%
    03:00 +12°C° 0 mm 1 mps 639 mmHg 45%
    04:00 +12°C° 0 mm 1 mps 639 mmHg 45%
    05:00 +12°C° 0 mm 1 mps 639 mmHg 45%
    06:00 +14°C° 0 mm 1 mps 640 mmHg 44%
    07:00 +15°C° 0 mm 1 mps 641 mmHg 43%
    08:00 +18°C° 0 mm 1 mps 642 mmHg 42%
    09:00 +20°C° 0 mm 1 mps 642 mmHg 36%
    10:00 +22°C° 0 mm 1 mps 643 mmHg 31%
    11:00 +24°C° 0 mm 1 mps 643 mmHg 25%
    12:00 +25°C° 0 mm 1 mps 643 mmHg 25%
    13:00 +25°C° 0 mm 1 mps 642 mmHg 24%
    14:00 +26°C° 0 mm 1 mps 642 mmHg 24%
    15:00 +25°C° 0 mm 1 mps 642 mmHg 31%
    16:00 +22°C° 0 mm 0 mps 641 mmHg 39%
    17:00 +21°C° 0 mm 0 mps 641 mmHg 46%
    18:00 +19°C° 0 mm 0 mps 641 mmHg 46%
    19:00 +17°C° 0 mm 0 mps 640 mmHg 45%
    20:00 +15°C° 0 mm 0 mps 640 mmHg 45%
    21:00 +14°C° 0 mm 0 mps 640 mmHg 46%
    22:00 +14°C° 0 mm 0 mps 640 mmHg 47%
    23:00 +15°C° 0 mm 1 mps 640 mmHg 47%

    30 April, Tuesday

    Time Temperature Precipitation Wind Pressure Humidity
    00:00 +14°C° 0 mm 1 mps 639 mmHg 48%
    01:00 +14°C° 0 mm 1 mps 639 mmHg 48%
    02:00 +14°C° 0 mm 1 mps 639 mmHg 48%
    03:00 +14°C° 0 mm 1 mps 639 mmHg 49%
    04:00 +13°C° 0 mm 1 mps 639 mmHg 50%
    05:00 +13°C° 0 mm 1 mps 639 mmHg 50%
    06:00 +15°C° 0 mm 1 mps 640 mmHg 49%
    07:00 +18°C° 0 mm 1 mps 641 mmHg 48%
    08:00 +19°C° 0 mm 1 mps 641 mmHg 47%
    09:00 +21°C° 0 mm 1 mps 642 mmHg 43%
    10:00 +23°C° 0 mm 1 mps 642 mmHg 39%
    11:00 +24°C° 0 mm 1 mps 642 mmHg 36%
    12:00 +25°C° 0 mm 1 mps 642 mmHg 34%
    13:00 +25°C° 0 mm 2 mps 641 mmHg 32%
    14:00 +26°C° 0 mm 2 mps 641 mmHg 30%
    15:00 +25°C° 0 mm 2 mps 640 mmHg 35%
    16:00 +24°C° 0 mm 1 mps 640 mmHg 40%
    17:00 +23°C° 0 mm 1 mps 640 mmHg 45%
    18:00 +22°C° 0 mm 1 mps 639 mmHg 48%
    19:00 +20°C° 0 mm 1 mps 639 mmHg 51%
    20:00 +18°C° 0 mm 1 mps 639 mmHg 54%
    21:00 +16°C° 0 mm 1 mps 639 mmHg 56%
    22:00 +15°C° 0 mm 0 mps 639 mmHg 59%
    23:00 +14°C° 0 mm 0 mps 639 mmHg 61%

    1 May, Wednesday

    Time Temperature Precipitation Wind Pressure Humidity
    00:00 +15°C° 0 mm 1 mps 638 mmHg 62%
    01:00 +14°C° 0 mm 1 mps 638 mmHg 63%
    02:00 +14°C° 0 mm 1 mps 638 mmHg 64%
    03:00 +14°C° 0 mm 1 mps 637 mmHg 66%
    04:00 +13°C° 0 mm 1 mps 637 mmHg 68%
    05:00 +13°C° 0 mm 1 mps 637 mmHg 70%
    06:00 +14°C° 0 mm 1 mps 638 mmHg 65%
    07:00 +16°C° 0 mm 1 mps 639 mmHg 60%
    08:00 +18°C° 0 mm 1 mps 640 mmHg 55%
    09:00 +20°C° 0 mm 1 mps 640 mmHg 49%
    10:00 +21°C° 0 mm 2 mps 640 mmHg 42%
    11:00 +24°C° 0 mm 2 mps 640 mmHg 35%
    12:00 +24°C° 0 mm 2 mps 640 mmHg 34%
    13:00 +25°C° 0 mm 3 mps 639 mmHg 32%
    14:00 +26°C° 0 mm 3 mps 639 mmHg 30%
    15:00 +25°C° 0 mm 3 mps 638 mmHg 33%
    16:00 +24°C° 0 mm 2 mps 638 mmHg 37%
    17:00 +23°C° 0 mm 2 mps 638 mmHg 41%
    18:00 +21°C° 0 mm 1 mps 637 mmHg 44%
    19:00 +19°C° 0 mm 1 mps 637 mmHg 48%
    20:00 +16°C° 0 mm 1 mps 636 mmHg 52%
    21:00 +16°C° 0 mm 1 mps 636 mmHg 52%
    22:00 +15°C° 0 mm 1 mps 636 mmHg 51%
    23:00 +15°C° 0 mm 1 mps 636 mmHg 51%
    Show more